TITAN 3C TRANSTAGE DEB, 13957

Orbit data source: Space-Track

TITAN 3C TRANSTAGE DEB, 13957 is space debris in HEO originally from a launch on Tue, 21 Dec 1965 UTC launched from the Air Force Eastern Test Range (AFETR). Debris objects in space refer to the collection of defunct objects orbiting the Earth. Examples of debris include non-operational satellites, rocket bodies, and fragments generated from explosions, collisions, or faulty payload assembly.

Loading next visibility...
Identifier
13957, 1965-108W
Orbit
HEO
Country
Flag of USUS
Related business
Manufacturer
Unknown
Mission
Spacecraft
Bus & Motor
Unknown
Mass
Unknown
Launch date (UTC)
1965-12-21 (60 years ago)
Launch vehicle
Unknown
Launch site
Air Force Eastern Test Range (AFETR)
Object type
Payload
Rocket body
Debris
Shape & HBR
Unknown shape, 0.4 m
Radar Cross Section
Medium (>0.1 m² and <1 m²)

Expand to show TLE details & history
Last TLE update: 1 day ago

TLE from 1 day ago
0 TITAN 3C TRANSTAGE DEB
1 13957U 65108W   25342.28341946  .00000213  00000-0  29281-2 0  9998
2 13957  26.6788 308.4665 6731395 116.8810 358.3941  2.80198071381792
Epoch: 2025-12-08T06:48Z
TLE epoch observation values (Epoch: 2025-12-08T06:48:07.441Z)
Latitude
25.78024°
Longitude
-123.64956°
Altitude
604.957 km
Speed
9.77 km/s
True Right ascension
03h 42m 39s
True Declination
25° 38' 34"
Sunlit
Object was in full shadow at epoch
Visualization orbit readout
Latitude
Unknown
Longitude
Unknown
Altitude
Unknown
Speed
Unknown
Apparent Right ascension
Unknown
Apparent Declination
Unknown
Sunlit
N/A
Visualization observer readout
Local Sidereal Time
05:55:54
Azimuth
Unknown
Elevation
Unknown
Doppler factor
Unknown
Orbital elements
Apogee altitude
29,187.496 km
Perigee altitude
569.879 km
Semi-major axis
21,256.825 km
Eccentricity
0.67314
Inclination
26.6788°
RAAN
308.4665°
Arg. of periapsis
116.881°
True anomaly
348.93974°
Mean anomaly
358.3941°
Eccentric anomaly
355.0992°
Mean motion
0.70032 °/min
Orbital period
514.05 mins
BSTAR
0.0029281
Loading maneuver chart data...
Computing Atmospheric mass density...

Documentation

Showing up to 5 results
|